Simultaneous Nadir Overpasses (SNOs) Predictions

Prediction of SNOs between METOP-A and NOAA-19 Satellite Orbit:

Table of predicted SNOs for the next 14.0 days since TLE Epoch: 5/22/2020
Index Date (METOP-A) Time (METOP-A) Lat,Lon (METOP-A) SZA (METOP-A ) Date (NOAA-19) Time (NOAA-19) Lat,Lon (NOAA-19) SZA (NOAA-19 ) Distance(km) Time Diff (sec)
1 06/02/2020 09:57:19 -80.52,-135.71 121.50 06/02/2020 09:56:05 -80.53,-135.80 121.51 1.83 74
2 06/02/2020 10:47:59 80.52, 31.67 58.51 06/02/2020 10:47:07 80.51, 31.81 58.49 3.06 52
3 06/02/2020 11:38:41 -80.51,-161.18 121.52 06/02/2020 11:38:05 -80.52,-161.09 121.52 1.97 36
4 06/02/2020 12:29:21 80.51, 6.19 58.48 06/02/2020 12:29:08 80.52, 6.17 58.48 0.50 13
5 06/02/2020 13:20:02 -80.52, 173.66 121.51 06/02/2020 13:20:05 -80.51, 173.62 121.53 1.98 3
6 06/02/2020 14:10:43 80.50, -19.29 58.46 06/02/2020 14:11:08 80.51, -19.12 58.47 3.14 25
7 06/02/2020 15:01:24 -80.51, 148.18 121.53 06/02/2020 15:02:05 -80.50, 148.33 121.53 3.25 41
8 06/02/2020 15:52:04 80.52, -44.44 58.47 06/02/2020 15:53:08 80.50, -44.41 58.47 2.18 64




NCC Satellite Simultaneous Nadir Overpasses (SNOs) Prediction Service
